Location: East Horndon
(51.5667°N, 0.3500°E)
Time: 11:09:09
(UTC+00:00)

Cosmos 2278 Rocket - Pass Details

Date: 08 November 2025
Orbit: 841 x 843 km, 71.0° (Epoch: 10 December)

Event Time Altitude Azimuth Distance (km) Brightness Sun altitude
Exits shadow 05:11:43 17° 322° (NW) 2,035 3.8 -17.7°
Maximum altitude 05:16:07 61° 246° (WSW) 952 2.2 -17.0°
Drops below altitude 10° 05:21:39 10° 167° (SSE) 2,455 4.9 -16.1°
Sets 05:24:06 0° 164° (SSE) 3,386 5.7 -15.8°
